Tracking 30743 objects as of 24-Jun-2025
HD Live streaming from Space Station
objects crossing your sky now

GLOBALSTAR DEB

Track GLOBALSTAR DEB now!
10-day predictions


NORAD ID: 27772
Int'l Code: 1999-031F
Perigee: 939.1 km
Apogee: 1,101.5 km
Inclination: 52.0 °
Period: 105.4 minutes
Semi major axis: 7391 km
RCS: 0.0157 m2 (small)
Launch date: June 10, 1999
Source: Globalstar (GLOB)
Launch site: AIR FORCE EASTERN TEST RANGE (AFETR)

Note: This is SATELLITE DEBRIS
Your satellite tracking list
Your tracking list is empty




NASA's NSSDC Master Catalog

Two Line Element Set (TLE):
1 27772U 99031F   25173.64796167  .00007739  00000-0  91121-2 0  9993
2 27772  52.0131  33.0370 0109850 348.1546  48.6336 13.66222176 97607
Source of the keplerian elements: AFSPC